Location: Ward Pound Ridge Reservation
(41.2500°N, 73.6000°W)
Time: 14:52:52
(UTC-04:00)

Tiangong 1 - Pass Details

Date: 07 October 2017
Orbit: 292 x 319 km, 42.8° (Epoch: 23 October)

Event Time Altitude Azimuth Distance (km) Brightness Sun altitude
Rises 20:20:48 0° 270° (W) 2,030 6.1 -22.3°
Reaches altitude 10° 20:22:48 10° 274° (W) 1,196 4.6 -22.7°
Enters shadow 20:24:01 23° 281° (W) 716 3.2 -22.9°
